Simultaneous Nadir Overpasses (SNOs) Predictions

Prediction of SNOs between AQUA and METOP-B Satellite Orbit:

Table of predicted SNOs for the next 14.0 days since TLE Epoch: 11/29/2015
Index Date (AQUA) Time (AQUA) Lat,Lon (AQUA) SZA (AQUA ) Date (METOP-B) Time (METOP-B) Lat,Lon (METOP-B) SZA (METOP-B ) Distance(km) Time Diff (sec)
1 12/01/2015 13:33:19 -73.73, 151.06 84.55 12/01/2015 13:32:11 -73.74, 151.08 84.54 0.96 68
2 12/01/2015 14:22:48 73.81, -41.48 95.55 12/01/2015 14:22:49 73.81, -41.41 95.55 2.32 1
3 12/01/2015 15:12:16 -73.93, 125.89 84.33 12/01/2015 15:13:29 -73.91, 126.15 84.36 8.34 73
4 12/04/2015 09:07:35 -73.73,-142.50 84.14 12/04/2015 09:06:30 -73.75,-142.47 84.11 2.91 65
5 12/04/2015 09:57:04 73.82, 24.95 95.96 12/04/2015 09:57:08 73.82, 25.03 95.97 2.93 4
6 12/04/2015 10:46:34 -74.03,-167.90 83.81 12/04/2015 10:47:46 -74.03,-167.16 83.83 22.84 72
7 12/07/2015 04:41:51 -73.75, -76.11 83.76 12/07/2015 04:40:49 -73.76, -76.03 83.74 2.87 62
8 12/07/2015 05:31:19 73.79, 91.44 96.29 12/07/2015 05:31:28 73.78, 91.34 96.29 3.09 9
9 12/07/2015 06:20:52 -74.16,-101.75 83.32 12/07/2015 06:22:02 -74.18,-100.35 83.32 42.53 70
10 12/10/2015 00:16:05 -73.74, -9.66 83.46 12/10/2015 00:15:07 -73.77, -9.61 83.43 3.16 58
11 12/10/2015 01:05:34 73.84, 157.77 96.65 12/10/2015 01:05:45 73.83, 157.88 96.64 3.67 11
12 12/10/2015 01:55:09 -74.31, -35.66 82.87 12/10/2015 01:56:17 -74.33, -33.56 82.88 63.29 68
13 12/12/2015 19:50:20 -73.76, 56.75 83.21 12/12/2015 19:49:26 -73.77, 56.80 83.19 1.95 54
14 12/12/2015 20:39:48 73.81,-135.73 96.86 12/12/2015 20:40:04 73.83,-135.72 96.87 1.78 16




NCC Satellite Simultaneous Nadir Overpasses (SNOs) Prediction Service
